This is the latest recevied weather packets stored in our database for station/object WA6ODQ-13. If no packets are shown the sender has not sent any weather packets the latest 10 day(s).
| Time | Temp. | Humidity | Pressure | Rain* | Wind** | Luminosity | Snow |
|---|---|---|---|---|---|---|---|
| 1777943264 | 13.89° C | 85% | 1012.9 hPa | 0 mm | - | 28 W/m² | - |
| 1777942955 | 14.44° C | 83% | 1012.9 hPa | 0 mm | - | 20 W/m² | - |
| 1777942652 | 14.44° C | 84% | 1012.7 hPa | 0 mm | - | 20 W/m² | - |
| 1777942349 | 14.44° C | 82% | 1012.9 hPa | 0 mm | - | 26 W/m² | - |
| 1777942046 | 14.44° C | 80% | 1013 hPa | 0 mm | - | 37 W/m² | - |
| 1777941742 | 14.44° C | 81% | 1013 hPa | 0 mm | - | 49 W/m² | - |
| 1777941440 | 14.44° C | 79% | 1012.9 hPa | 0 mm | - | 57 W/m² | - |
| 1777941137 | 14.44° C | 78% | 1012.8 hPa | 0 mm | - | 48 W/m² | - |
| 1777940833 | 14.44° C | 77% | 1012.7 hPa | 0 mm | - | 51 W/m² | - |
| 1777940531 | 15° C | 77% | 1012.8 hPa | 0 mm | - | 36 W/m² | - |
| 1777940229 | 15° C | 74% | 1012.9 hPa | 0 mm | - | 34 W/m² | - |
| 1777939926 | 15° C | 73% | 1012.8 hPa | 0 mm | - | 35 W/m² | - |
| 1777939623 | 15° C | 73% | 1012.9 hPa | 0 mm | - | 46 W/m² | - |
| 1777939321 | 15.56° C | 73% | 1012.8 hPa | 0 mm | - | 48 W/m² | - |
| 1777939016 | 15.56° C | 72% | 1012.8 hPa | 0 mm | - | 45 W/m² | - |
| 1777938713 | 15.56° C | 71% | 1012.8 hPa | 0 mm | - | 47 W/m² | - |
| 1777938411 | 16.11° C | 73% | 1013 hPa | 0 mm | - | 42 W/m² | - |
| 1777938108 | 16.11° C | 73% | 1013.1 hPa | 0 mm | - | 45 W/m² | - |
| 1777937803 | 16.11° C | 74% | 1012.6 hPa | 0 mm | - | 51 W/m² | - |
| 1777937499 | 16.11° C | 73% | 1012.7 hPa | 0 mm | - | 49 W/m² | - |
| 1777937197 | 16.11° C | 71% | 1012.9 hPa | 0 mm | - | 50 W/m² | - |
| 1777936894 | 16.11° C | 72% | 1012.7 hPa | 0 mm | - | 53 W/m² | - |
| 1777936591 | 16.67° C | 71% | 1012.6 hPa | 0 mm | - | 59 W/m² | - |
| 1777936287 | 16.67° C | 72% | 1012.4 hPa | 0 mm | - | 69 W/m² | - |
| 1777935983 | 16.67° C | 70% | 1012.4 hPa | 0 mm | - | 79 W/m² | - |
* Rain latest hour (hover to see other rain measurements)
** Current wind speed in m/s (hover to see current wind gust speed)